When you browse on this site, cookies collect data to enhance your experience and personalize the content and advertising you see.
Visit our Privacy Policy to learn more. By continuing to use the site, you agree to this use of cookies and data.
  • In United Kingdom
  • List of Countries
  • For 7 days
  • Water Temperature
  • Satellite Maps
  • Weather Map
  • Weather Widgets
  • user-avatar
    Login

    Hourly Weather Mokoa

    Today, 18 June, Tuesday

    Time Temperature Precipitation Wind Pressure Humidity
    00:00 +29°C° 0 mm 7 mps 753 mmHg 78%
    01:00 +29°C° 0 mm 7 mps 753 mmHg 78%
    02:00 +29°C° 0 mm 7 mps 753 mmHg 78%
    03:00 +29°C° 0 mm 7 mps 753 mmHg 77%
    04:00 +29°C° 0 mm 7 mps 753 mmHg 77%
    05:00 +29°C° 0 mm 8 mps 753 mmHg 77%
    06:00 +29°C° 0 mm 8 mps 753 mmHg 76%
    07:00 +31°C° 0 mm 8 mps 753 mmHg 75%
    08:00 +32°C° 0 mm 9 mps 753 mmHg 70%
    09:00 +33°C° 0 mm 9 mps 753 mmHg 65%
    10:00 +34°C° 0 mm 9 mps 753 mmHg 60%
    11:00 +34°C° 0 mm 9 mps 753 mmHg 58%
    12:00 +35°C° 0 mm 8 mps 752 mmHg 56%
    13:00 +35°C° 0 mm 8 mps 752 mmHg 54%
    14:00 +35°C° 0 mm 8 mps 752 mmHg 56%
    15:00 +35°C° 0 mm 8 mps 751 mmHg 58%
    16:00 +34°C° 0 mm 8 mps 751 mmHg 60%
    17:00 +33°C° 0 mm 8 mps 751 mmHg 64%
    18:00 +32°C° 0 mm 8 mps 752 mmHg 67%
    19:00 +31°C° 0 mm 8 mps 752 mmHg 70%
    20:00 +31°C° 0 mm 8 mps 753 mmHg 71%
    21:00 +31°C° 0 mm 8 mps 753 mmHg 73%
    22:00 +29°C° 0 mm 9 mps 754 mmHg 75%
    23:00 +29°C° 0 mm 8 mps 753 mmHg 76%

    Tomorrow, 19 June, Wednesday

    Time Temperature Precipitation Wind Pressure Humidity
    00:00 +29°C° 0 mm 8 mps 753 mmHg 77%
    01:00 +29°C° 0 mm 7 mps 753 mmHg 77%
    02:00 +29°C° 0 mm 7 mps 753 mmHg 78%
    03:00 +29°C° 0 mm 7 mps 753 mmHg 79%
    04:00 +28°C° 0 mm 6 mps 752 mmHg 80%
    05:00 +29°C° 0 mm 7 mps 753 mmHg 78%
    06:00 +29°C° 0 mm 8 mps 753 mmHg 77%
    07:00 +31°C° 0 mm 8 mps 753 mmHg 76%
    08:00 +31°C° 0 mm 9 mps 753 mmHg 72%
    09:00 +32°C° 0 mm 9 mps 753 mmHg 69%
    10:00 +33°C° 0 mm 9 mps 753 mmHg 66%
    11:00 +34°C° 0 mm 9 mps 753 mmHg 63%
    12:00 +35°C° 0 mm 8 mps 752 mmHg 59%
    13:00 +37°C° 0 mm 8 mps 752 mmHg 56%
    14:00 +35°C° 0 mm 8 mps 751 mmHg 57%
    15:00 +35°C° 0 mm 9 mps 751 mmHg 59%
    16:00 +34°C° 0 mm 9 mps 751 mmHg 60%
    17:00 +33°C° 0 mm 9 mps 751 mmHg 64%
    18:00 +32°C° 0 mm 9 mps 751 mmHg 68%
    19:00 +31°C° 0 mm 9 mps 752 mmHg 71%
    20:00 +31°C° 0 mm 9 mps 752 mmHg 73%
    21:00 +31°C° 0 mm 9 mps 753 mmHg 75%
    22:00 +29°C° 0 mm 9 mps 753 mmHg 77%
    23:00 +29°C° 0 mm 8 mps 753 mmHg 78%

    Day after tomorrow, 20 June, Thursday

    Time Temperature Precipitation Wind Pressure Humidity
    00:00 +29°C° 0 mm 7 mps 753 mmHg 78%
    01:00 +29°C° 0 mm 7 mps 752 mmHg 79%
    02:00 +29°C° 0 mm 7 mps 752 mmHg 79%
    03:00 +29°C° 0 mm 6 mps 752 mmHg 80%
    04:00 +29°C° 0 mm 6 mps 752 mmHg 80%
    05:00 +29°C° 0 mm 6 mps 752 mmHg 80%
    06:00 +29°C° 0 mm 6 mps 753 mmHg 79%
    07:00 +29°C° 0 mm 6 mps 753 mmHg 78%
    08:00 +32°C° 0 mm 6 mps 753 mmHg 73%
    09:00 +33°C° 0 mm 6 mps 753 mmHg 68%
    10:00 +34°C° 0 mm 6 mps 754 mmHg 63%
    11:00 +34°C° 0.1 mm 6 mps 753 mmHg 61%
    12:00 +35°C° 0.1 mm 6 mps 753 mmHg 60%
    13:00 +35°C° 0.1 mm 6 mps 753 mmHg 58%
    14:00 +35°C° 0.1 mm 6 mps 752 mmHg 59%
    15:00 +35°C° 0.1 mm 5 mps 752 mmHg 60%
    16:00 +34°C° 0.1 mm 5 mps 752 mmHg 61%
    17:00 +33°C° 0.1 mm 5 mps 752 mmHg 65%
    18:00 +32°C° 0.1 mm 6 mps 753 mmHg 69%
    19:00 +30°C° 0.1 mm 6 mps 753 mmHg 73%
    20:00 +30°C° 0 mm 6 mps 753 mmHg 74%
    21:00 +30°C° 0 mm 7 mps 754 mmHg 74%
    22:00 +30°C° 0 mm 7 mps 754 mmHg 74%
    23:00 +30°C° 0 mm 7 mps 754 mmHg 73%

    21 June, Friday

    Time Temperature Precipitation Wind Pressure Humidity
    00:00 +30°C° 0 mm 7 mps 754 mmHg 73%
    01:00 +29°C° 0 mm 6 mps 753 mmHg 72%
    02:00 +29°C° 0 mm 7 mps 753 mmHg 72%
    03:00 +29°C° 0 mm 8 mps 753 mmHg 73%
    04:00 +29°C° 0 mm 8 mps 753 mmHg 73%
    05:00 +29°C° 0 mm 8 mps 753 mmHg 73%
    06:00 +31°C° 0 mm 9 mps 754 mmHg 73%
    07:00 +31°C° 0 mm 9 mps 754 mmHg 72%
    08:00 +32°C° 0 mm 9 mps 754 mmHg 68%
    09:00 +33°C° 0 mm 10 mps 754 mmHg 64%
    10:00 +34°C° 0 mm 10 mps 755 mmHg 59%
    11:00 +36°C° 0 mm 10 mps 754 mmHg 57%
    12:00 +36°C° 0 mm 10 mps 754 mmHg 54%
    13:00 +37°C° 0 mm 9 mps 753 mmHg 51%
    14:00 +36°C° 0 mm 10 mps 753 mmHg 53%
    15:00 +36°C° 0 mm 10 mps 752 mmHg 55%
    16:00 +36°C° 0 mm 10 mps 752 mmHg 56%
    17:00 +33°C° 0 mm 10 mps 752 mmHg 61%
    18:00 +32°C° 0 mm 9 mps 753 mmHg 66%
    19:00 +31°C° 0 mm 9 mps 753 mmHg 71%
    20:00 +31°C° 0 mm 9 mps 754 mmHg 73%
    21:00 +29°C° 0 mm 9 mps 754 mmHg 75%
    22:00 +29°C° 0 mm 9 mps 755 mmHg 77%
    23:00 +29°C° 0 mm 8 mps 755 mmHg 77%

    22 June, Saturday

    Time Temperature Precipitation Wind Pressure Humidity
    00:00 +29°C° 0 mm 8 mps 754 mmHg 76%
    01:00 +29°C° 0 mm 8 mps 754 mmHg 76%
    02:00 +29°C° 0 mm 8 mps 754 mmHg 76%
    03:00 +29°C° 0 mm 8 mps 754 mmHg 76%
    04:00 +29°C° 0 mm 8 mps 754 mmHg 76%
    05:00 +29°C° 0 mm 8 mps 754 mmHg 75%
    06:00 +29°C° 0 mm 9 mps 754 mmHg 74%
    07:00 +31°C° 0 mm 9 mps 754 mmHg 73%
    08:00 +32°C° 0 mm 9 mps 754 mmHg 69%
    09:00 +33°C° 0 mm 10 mps 755 mmHg 64%
    10:00 +34°C° 0 mm 10 mps 755 mmHg 60%
    11:00 +34°C° 0 mm 10 mps 754 mmHg 57%
    12:00 +35°C° 0 mm 9 mps 753 mmHg 54%
    13:00 +37°C° 0 mm 9 mps 753 mmHg 51%
    14:00 +35°C° 0.1 mm 9 mps 752 mmHg 54%
    15:00 +35°C° 0.1 mm 9 mps 752 mmHg 56%
    16:00 +34°C° 0.1 mm 9 mps 752 mmHg 59%
    17:00 +33°C° 0.3 mm 9 mps 752 mmHg 63%
    18:00 +32°C° 0.3 mm 9 mps 753 mmHg 67%
    19:00 +31°C° 0.3 mm 9 mps 753 mmHg 72%
    20:00 +31°C° 0.4 mm 9 mps 754 mmHg 74%
    21:00 +29°C° 0.4 mm 9 mps 754 mmHg 76%
    22:00 +29°C° 0.4 mm 9 mps 755 mmHg 79%
    23:00 +29°C° 0.1 mm 9 mps 755 mmHg 79%

    23 June, Sunday

    Time Temperature Precipitation Wind Pressure Humidity
    00:00 +29°C° 0.1 mm 8 mps 754 mmHg 79%
    01:00 +29°C° 0.1 mm 8 mps 754 mmHg 80%
    02:00 +28°C° 0.2 mm 8 mps 754 mmHg 81%
    03:00 +28°C° 0.2 mm 8 mps 754 mmHg 81%
    04:00 +28°C° 0.2 mm 7 mps 753 mmHg 82%
    05:00 +28°C° 0.2 mm 8 mps 754 mmHg 81%
    06:00 +29°C° 0.2 mm 8 mps 754 mmHg 80%
    07:00 +29°C° 0.2 mm 8 mps 754 mmHg 79%
    08:00 +31°C° 0 mm 8 mps 754 mmHg 74%
    09:00 +32°C° 0 mm 9 mps 754 mmHg 69%
    10:00 +33°C° 0 mm 9 mps 754 mmHg 64%
    11:00 +34°C° 0 mm 9 mps 754 mmHg 62%
    12:00 +34°C° 0 mm 8 mps 753 mmHg 59%
    13:00 +35°C° 0 mm 8 mps 752 mmHg 56%
    14:00 +35°C° 0 mm 8 mps 752 mmHg 58%
    15:00 +34°C° 0 mm 8 mps 752 mmHg 60%
    16:00 +34°C° 0 mm 8 mps 751 mmHg 62%
    17:00 +33°C° 0 mm 8 mps 751 mmHg 65%
    18:00 +32°C° 0 mm 7 mps 752 mmHg 69%
    19:00 +30°C° 0 mm 7 mps 752 mmHg 73%
    20:00 +30°C° 0 mm 7 mps 753 mmHg 74%
    21:00 +29°C° 0 mm 7 mps 753 mmHg 76%
    22:00 +29°C° 0 mm 7 mps 754 mmHg 78%
    23:00 +29°C° 0 mm 7 mps 753 mmHg 79%
    Show more